SCP
0 0 0 0 0 0 0 0 0 0 0 0 0 0 0 0 0 1 1 1 0 0 0 0 0 0 0 0 0 0 0 0 1 1 1 1 1 1 0 0 0 0 0 0
0 0 0 0 0 0 0 0 0 0 0 0 0 0 0 0 0 1 1 0 0 0 0 0 0 0 0 0 0 0 0 0 1 1 1 1 1 0 0 0 0 0 0 0
0 0 0 0 0 0 0 0 0 0 0 0 0 0 0 0 1 1 1 1 1 1 0 0 0 0 0 0 0 0 0 0 0 1 1 1 1 0 0 0 0 0 0 0
0 0 0 0 0 0 0 0 0 0 0 0 0 0 0 0 1 1 1 1 1 0 0 0 0 0 0 0 0 0 0 0 0 1 1 1 1 1 0 0 0 0 0 0
0 0 0 0 0 0 0 0 0 0 0 0 0 0 0 0 1 1 1 1 1 0 0 0 0 0 0 0 0 0 0 0 0 0 1 1 1 1 1 0 0 0 0 0
0 0 0 0 0 0 0 0 0 0 0 0 0 0 0 0 0 1 1 1 1 0 0 0 0 0 0 0 0 0 0 0 0 0 1 1 2 1 1 0 0 0 0 0
0 0 0 0 0 0 0 0 0 0 0 0 0 0 0 0 0 0 1 1 0 0 0 0 0 0 0 0 0 0 0 1 1 1 1 1 1 1 1 1 0 0 0 0
0 0 0 0 0 0 0 0 0 0 0 0 0 0 0 0 0 0 0 0 0 0 0 0 0 0 0 0 0 0 0 1 1 1 1 1 1 1 1 1 0 0 0 0
0 0 0 0 0 0 0 0 0 0 0 0 0 0 0 0 0 0 0 0 0 0 0 0 0 0 0 0 0 1 1 1 1 1 1 1 1 1 1 1 0 0 0 0
0 0 0 0 0 0 0 0 0 0 0 0 0 0 0 0 0 0 0 0 0 0 0 0 0 0 0 0 0 1 1 1 1 1 1 1 1 1 0 0 0 0 0 0
0 0 0 0 0 0 0 0 0 0 0 0 0 0 0 0 0 0 0 0 0 0 0 0 0 0 0 0 0 0 1 1 1 1 1 1 1 0 0 0 0 0 0 0
0 0 0 0 0 0 0 0 0 0 0 0 0 0 0 0 0 0 0 0 0 0 0 0 0 0 0 0 0 0 0 0 0 0 1 1 1 0 0 0 0 0 0 0
0 0 0 0 0 0 0 0 0 0 0 0 0 0 0 0 0 0 0 0 0 0 0 0 0 0 0 0 0 0 0 0 0 0 0 1 1 0 0 0 0 0 0 0
0 0 0 0 0 0 0 0 0 0 0 0 0 0 0 0 0 0 0 0 0 0 0 0 0 0 0 0 0 0 0 0 0 0 0 1 1 0 0 0 0 0 0 0
0 0 0 0 0 0 0 0 0 0 0 0 0 0 0 0 0 0 0 0 0 0 0 0 0 0 0 0 0 0 0 0 0 0 0 0 0 0 0 0 0 0 0 0
0 0 0 0 0 0 0 0 0 0 0 0 0 0 0 0 0 0 0 0 0 0 0 0 0 0 0 0 0 0 0 0 0 0 0 0 0 0 0 0 0 0 0 0
0 0 0 0 0 0 0 0 0 0 0 0 0 0 0 0 0 0 0 0 0 0 0 0 0 0 0 0 0 0 0 0 0 0 0 0 0 0 0 0 0 0 0 0
0 0 0 0 0 0 0 0 0 0 0 0 0 0 0 0 0 0 0 0 0 0 0 0 0 0 0 0 0 0 0 0 0 0 0 0 0 0 0 0 0 0 0 0
0 0 0 0 0 0 0 0 0 0 0 0 0 0 0 0 0 0 0 0 0 0 0 0 0 0 0 0 0 0 0 0 0 0 0 0 0 0 0 0 0 0 0 0
0 0 0 0 0 0 0 0 0 0 0 0 0 0 0 0 0 0 0 0 0 0 0 0 0 0 0 0 0 0 0 0 0 0 0 0 0 0 0 0 0 0 0 0
0 0 0 0 0 0 0 0 0 0 0 0 0 0 0 0 0 0 0 0 0 0 0 0 0 0 0 0 0 0 0 0 0 0 0 0 0 0 0 0 0 0 0 0
0 0 0 0 0 0 0 0 0 0 0 0 0 0 0 0 0 0 0 0 0 0 0 0 0 0 0 0 0 0 0 0 0 0 0 0 0 0 0 0 0 0 0 0
0 0 0 0 0 0 0 0 0 0 0 0 0 0 0 0 0 0 0 0 0 0 0 0 0 0 0 0 0 0 0 0 0 0 0 0 0 0 0 0 0 0 0 0
0 0 0 0 0 0 0 0 0 0 0 0 0 0 0 0 0 0 0 0 0 0 0 0 0 0 0 0 0 0 0 0 0 0 0 0 0 0 0 0 0 0 0 0
0 0 0 0 0 0 0 0 0 0 0 0 0 0 0 0 0 0 0 0 0 0 0 0 0 0 0 0 0 0 0 0 0 0 0 0 0 0 0 0 0 0 0 0
0 0 0 0 0 0 0 0 0 0 0 0 0 0 0 0 0 0 0 0 0 0 0 0 0 0 0 0 0 0 0 0 0 0 0 0 0 0 0 0 0 0 0 0
0 0 0 0 0 0 0 0 0 0 0 0 0 0 0 0 0 0 0 0 0 0 0 0 0 0 0 0 0 0 0 0 0 0 0 0 0 0 0 0 0 0 0 0
Wind_Speed
3 1 1 1 2 2 3 2 1 4 6 8 6 7 7 6 5 5 5 5 5 4 3 2 2 2 2 1 2 2 2 2 1 1 1 0 1 1 1 2 2 2 2 1
4 3 3 4 4 4 3 2 2 4 5 7 7 7 6 6 6 5 5 4 4 3 3 2 2 2 2 1 1 2 2 1 1 1 1 0 1 1 2 1 2 2 2 2
5 5 5 5 4 4 4 2 1 3 5 7 7 7 6 5 6 6 4 4 3 3 2 2 1 2 2 1 1 1 2 2 1 1 0 0 1 1 2 2 2 2 2 2
5 4 5 2 2 2 3 2 3 5 6 6 7 7 6 6 6 5 4 4 3 2 2 1 1 1 1 1 1 1 1 2 1 0 0 1 1 2 2 2 2 2 3 2
5 6 3 4 4 5 4 3 3 6 7 6 7 7 6 7 6 5 4 4 3 2 2 2 3 2 1 0 1 2 2 1 0 0 1 1 2 2 2 2 2 3 3 3
5 5 4 3 6 3 3 4 5 5 6 6 5 4 4 6 5 5 4 3 3 3 3 4 3 3 2 1 2 2 1 1 1 1 1 2 3 2 2 2 3 3 3 3
8 6 1 5 5 3 3 3 6 5 5 5 3 3 5 6 5 4 4 3 2 2 3 3 3 3 2 3 3 2 1 1 1 1 2 3 2 2 2 2 3 3 3 3
7 7 2 5 4 2 4 6 6 5 5 5 5 5 5 5 4 3 3 2 2 2 2 2 3 3 3 2 2 2 2 2 2 2 3 3 2 2 2 3 3 3 3 2
1 3 5 5 6 6 6 6 5 5 5 6 5 4 4 3 3 2 2 2 2 1 1 1 2 2 3 2 2 2 2 2 3 3 2 2 2 2 2 2 2 2 2 2
2 5 6 5 5 5 5 5 5 5 4 4 3 3 2 2 2 2 2 2 1 1 1 1 1 1 2 2 2 2 2 3 3 2 2 2 2 2 2 2 2 2 2 2
2 3 5 4 3 3 4 4 4 4 3 3 2 2 1 1 1 1 1 1 1 1 1 2 1 1 1 2 3 3 3 3 3 2 2 2 2 2 3 3 3 3 3 3
3 3 2 4 4 4 3 2 2 2 2 2 2 1 1 1 1 1 1 1 1 1 1 2 2 2 1 1 2 3 3 3 2 2 2 2 2 3 3 4 5 6 6 5
2 1 2 3 3 3 2 1 1 1 1 1 1 1 1 1 1 1 1 1 1 2 2 2 2 3 2 2 3 4 3 3 2 2 3 3 3 3 3 4 5 6 7 7
1 1 1 1 1 1 1 0 0 0 0 1 1 1 1 2 2 2 2 2 1 2 3 3 3 3 3 3 3 4 4 3 3 3 3 3 4 3 3 3 3 3 5 7
2 2 1 1 1 1 1 1 2 1 1 1 1 1 1 2 2 2 3 2 2 2 3 3 3 4 3 4 4 4 4 3 2 3 3 4 4 4 4 4 4 3 2 3
3 3 3 3 3 3 3 3 3 2 2 2 1 2 2 3 3 3 2 2 2 3 3 3 4 4 3 4 4 4 4 6 5 4 4 4 4 4 4 4 4 4 4 3
5 5 4 4 4 4 4 3 3 2 2 2 2 3 3 3 3 3 3 2 3 3 3 3 3 3 4 4 4 3 4 5 7 5 4 4 4 4 4 4 4 5 4 5
5 4 4 4 3 3 3 3 2 2 2 2 3 3 4 4 4 4 3 3 4 4 3 3 3 4 4 4 4 4 4 4 4 4 4 4 4 4 5 5 5 6 4 4
4 3 3 3 2 2 2 2 2 2 2 3 3 4 4 4 4 4 4 4 4 4 4 3 5 5 4 5 6 4 4 5 5 5 4 6 6 5 4 5 5 5 5 4
3 2 2 2 2 2 2 2 2 2 3 3 4 4 4 4 4 5 4 4 3 3 3 4 5 5 5 5 6 4 5 5 6 6 5 5 5 5 5 5 5 5 5 4
2 2 2 2 2 2 2 2 3 3 3 4 4 5 5 5 5 4 4 4 4 3 4 5 4 4 4 5 6 5 5 6 6 6 6 6 6 6 6 6 6 5 5 5
3 2 3 3 3 3 3 3 3 4 4 4 5 5 5 5 5 5 5 4 4 5 4 3 3 5 7 8 5 5 6 7 7 6 6 6 6 6 6 6 6 5 5 5
3 3 3 3 4 4 4 4 4 4 4 4 5 5 5 5 4 4 5 3 3 5 4 4 6 10 11 7 6 6 7 8 7 7 6 6 6 6 6 6 6 5 5 5
3 3 4 4 4 4 5 5 4 4 4 5 5 5 5 4 4 4 4 4 6 6 5 6 10 12 11 6 6 7 7 7 7 7 6 6 6 6 6 5 6 5 5 7
4 4 4 4 4 3 4 4 5 5 4 4 5 5 4 3 4 4 3 4 6 7 5 7 12 13 9 7 7 7 7 7 7 7 6 6 5 5 6 6 6 6 6 6
4 4 3 4 3 2 3 3 3 3 4 4 4 3 3 3 4 3 3 4 6 7 6 5 6 7 6 7 7 7 7 7 8 7 6 6 6 6 6 6 8 6 6 6
5 4 3 3 3 3 3 3 3 4 4 4 4 4 3 3 3 4 5 4 4 4 5 5 5 5 6 6 6 7 6 6 6 6 6 6 6 6 6 7 6 6 5 5
Wind_Direction
267 320 265 249 244 253 269 295 45 120 124 129 126 119 116 114 112 107 102 99 103 108 112 118 112 111 114 122 124 124 127 138 155 164 136 264 283 277 283 287 295 295 288 282
247 226 228 245 244 243 249 279 145 132 116 114 110 107 106 108 104 96 88 83 86 91 98 113 112 107 104 102 111 121 116 118 118 106 105 272 296 299 302 305 301 299 290 279
259 210 215 236 226 220 210 210 194 135 124 118 118 110 105 105 104 96 82 76 73 70 73 68 96 115 128 138 103 86 97 98 107 131 143 259 291 302 289 278 278 283 283 277
267 238 231 126 93 128 155 150 114 104 114 120 114 100 91 94 96 93 82 74 66 57 53 48 70 80 103 116 119 103 84 90 88 360 249 251 275 284 277 272 265 269 275 263
258 254 222 166 162 162 162 149 132 127 123 118 118 115 98 87 82 83 75 64 52 31 29 28 53 48 25 116 95 82 65 47 48 323 280 253 256 268 280 289 282 270 269 260
263 258 253 138 135 138 170 155 140 138 133 137 139 138 115 97 88 82 73 60 44 24 26 29 28 24 3 10 52 53 51 10 356 306 273 254 247 256 271 281 274 274 272 262
259 259 144 98 116 149 191 129 122 121 124 129 126 95 102 97 86 83 81 69 50 35 32 26 13 8 355 15 23 11 10 350 309 282 278 269 252 249 264 272 276 273 272 270
232 241 187 119 143 132 90 91 97 100 97 98 89 86 94 99 92 83 78 73 59 46 33 23 8 357 357 15 10 357 342 301 278 265 265 278 268 262 256 260 268 272 281 288
26 79 79 85 79 72 83 89 81 84 92 100 102 101 101 106 107 94 73 57 53 56 28 15 8 360 352 354 353 339 319 300 291 288 278 274 265 266 268 261 263 270 274 276
114 121 107 93 87 78 73 78 72 68 73 89 96 98 105 103 98 88 72 44 22 14 353 348 351 354 350 340 334 324 307 296 290 289 296 291 287 269 264 263 262 264 268 269
227 137 124 129 115 102 85 85 86 75 69 70 82 78 68 63 72 75 61 44 2 331 323 324 328 339 340 328 323 316 306 295 292 287 279 283 277 269 265 258 251 251 251 248
229 174 167 146 130 122 116 104 97 92 76 63 60 51 20 8 33 45 43 5 328 322 321 322 326 325 328 320 312 305 301 305 304 297 284 275 277 290 290 271 273 268 253 248
303 356 60 99 117 126 131 122 117 116 82 44 35 20 346 341 354 350 336 327 324 326 322 320 319 321 324 317 301 296 297 300 299 295 291 280 270 266 282 299 291 274 263 253
37 69 137 138 132 139 169 213 273 320 327 326 344 348 338 326 323 318 313 315 318 316 312 315 316 316 319 318 310 301 296 293 292 281 280 278 272 266 261 260 269 279 271 252
230 231 212 186 195 232 236 246 248 249 267 287 326 318 313 308 309 310 310 311 311 302 305 309 308 310 317 317 312 305 299 286 282 281 280 278 274 269 264 260 255 257 264 267
228 228 219 220 222 234 240 242 247 255 270 280 286 295 304 305 300 293 293 300 296 291 292 294 298 306 313 314 309 301 294 287 281 274 272 275 273 271 269 262 259 251 242 239
227 227 224 222 226 236 241 249 262 268 272 280 292 301 298 293 288 287 291 293 290 285 289 295 301 307 309 309 304 293 287 286 281 273 266 268 270 272 271 266 262 257 248 233
228 232 233 237 235 237 242 250 265 276 280 288 292 284 280 282 284 286 288 288 287 284 286 293 302 304 299 301 299 290 284 282 280 275 271 270 271 269 270 270 272 269 267 240
216 216 219 234 242 248 252 262 274 281 286 286 283 280 281 282 283 283 282 280 279 280 281 287 296 292 289 289 293 283 284 286 286 281 276 275 275 269 267 268 270 269 266 252
204 203 206 222 233 235 247 267 279 283 281 281 279 278 277 278 281 284 283 279 269 269 282 294 291 286 283 283 294 285 284 283 283 283 279 274 270 271 269 266 265 266 264 254
197 199 210 230 253 261 259 262 267 271 277 280 280 280 281 281 282 283 283 281 278 284 289 287 281 278 280 290 291 280 278 278 276 274 273 271 272 270 269 269 265 262 261 256
209 211 222 235 248 258 258 260 263 269 276 281 284 285 286 284 282 280 271 265 270 281 284 276 276 282 291 295 278 272 271 271 270 268 268 268 267 268 266 268 268 263 259 255
236 237 241 247 257 267 272 270 269 271 275 279 282 282 281 280 279 278 279 274 272 282 286 279 284 289 291 286 271 268 266 265 264 263 262 263 264 264 264 265 265 266 264 257
257 256 257 257 262 266 269 273 276 274 272 274 273 276 278 277 274 269 272 282 284 283 279 280 284 284 284 275 269 266 264 263 261 260 261 261 262 265 268 268 265 264 266 265
267 265 265 268 266 268 277 282 282 277 273 270 273 277 279 274 272 276 280 286 292 291 283 284 287 286 279 272 270 269 268 265 265 265 260 259 257 258 262 264 266 267 265 261
272 271 270 268 267 263 267 268 267 272 275 276 276 279 283 283 285 287 284 282 285 293 290 285 283 283 282 280 278 277 274 273 271 263 258 259 258 259 262 263 266 265 265 262
271 270 261 256 254 254 259 261 262 266 270 274 281 284 287 292 291 289 289 289 289 290 293 294 293 291 289 286 283 280 279 274 269 268 266 262 258 256 259 261 262 263 264 266